This is the latest recevied weather packets stored in our database for station/object WX5RP. If no packets are shown the sender has not sent any weather packets the latest 10 day(s).
| Time | Temp. | Humidity | Pressure | Rain* | Wind** | Luminosity | Snow |
|---|---|---|---|---|---|---|---|
| 1777520116 | 8.89° C | 43% | 1019.2 hPa | 0 mm | - | 0 W/m² | - |
| 1777519516 | 9.44° C | 42% | 1018.6 hPa | 0 mm | - | 0 W/m² | - |
| 1777518916 | 10.56° C | 43% | 1018.7 hPa | 0 mm | - | 0 W/m² | - |
| 1777518316 | 11.11° C | 37% | 1019.4 hPa | 0 mm | - | 2 W/m² | - |
| 1777517716 | 11.67° C | 39% | 1018.5 hPa | 0 mm | - | 9 W/m² | - |
| 1777517116 | 12.78° C | 38% | 1018.8 hPa | 0 mm | - | 13 W/m² | - |
| 1777516516 | 13.89° C | 35% | 1018.5 hPa | 0 mm | - | 19 W/m² | - |
| 1777515916 | 15.56° C | 33% | 1018 hPa | 0 mm | - | 32 W/m² | - |
| 1777515316 | 16.67° C | 28% | 1018 hPa | 0 mm | - | 41 W/m² | - |
| 1777514716 | 17.22° C | 22% | 1019.3 hPa | 0 mm | - | 45 W/m² | - |
| 1777514116 | 17.22° C | 21% | 1019.1 hPa | 0 mm | - | 90 W/m² | - |
| 1777513516 | 17.22° C | 19% | 1019 hPa | 0 mm | - | 59 W/m² | - |
| 1777512916 | 17.22° C | 19% | 1018.7 hPa | 0 mm | - | 58 W/m² | - |
| 1777512316 | 17.78° C | 21% | 1018.7 hPa | 0 mm | - | 209 W/m² | - |
| 1777511716 | 17.78° C | 19% | 1018.7 hPa | 0 mm | - | 117 W/m² | - |
| 1777511116 | 18.33° C | 19% | 1019.4 hPa | 0 mm | - | 200 W/m² | - |
| 1777510516 | 17.78° C | 18% | 1019 hPa | 0 mm | - | 268 W/m² | - |
| 1777509916 | 17.78° C | 19% | 1019 hPa | 0 mm | - | 180 W/m² | - |
| 1777509317 | 18.33° C | 19% | 1019.6 hPa | 0 mm | - | 332 W/m² | - |
| 1777508716 | 17.78° C | 22% | 1019.6 hPa | 0 mm | - | 436 W/m² | - |
| 1777508116 | 17.78° C | 20% | 1019.6 hPa | 0 mm | - | 470 W/m² | - |
| 1777507516 | 17.78° C | 20% | 1019.6 hPa | 0 mm | - | 502 W/m² | - |
| 1777506915 | 18.33° C | 18% | 1019.3 hPa | 0 mm | - | 536 W/m² | - |
| 1777506316 | 18.33° C | 19% | 1019.6 hPa | 0 mm | - | 566 W/m² | - |
| 1777505716 | 18.33° C | 18% | 1019.6 hPa | 0 mm | - | 598 W/m² | - |
* Rain latest hour (hover to see other rain measurements)
** Current wind speed in m/s (hover to see current wind gust speed)